This is the latest recevied weather packets stored in our database for station/object K4VEB. If no packets are shown the sender has not sent any weather packets the latest 10 day(s).
| Time | Temp. | Humidity | Pressure | Rain* | Wind** | Luminosity | Snow |
|---|---|---|---|---|---|---|---|
| 1777991976 | 25.56° C | 65% | 1016.5 hPa | 0 mm | - | 607 W/m² | - |
| 1777991674 | 26.11° C | 64% | 1016.6 hPa | 0 mm | - | 307 W/m² | - |
| 1777991370 | 26.11° C | 64% | 1016.5 hPa | 0 mm | - | 583 W/m² | - |
| 1777991068 | 25.56° C | 66% | 1016.5 hPa | 0 mm | - | 517 W/m² | - |
| 1777990765 | 25.56° C | 66% | 1016.5 hPa | 0 mm | - | 547 W/m² | - |
| 1777990462 | 25° C | 67% | 1016.4 hPa | 0 mm | - | 526 W/m² | - |
| 1777989855 | 24.44° C | 69% | 1016.5 hPa | 0 mm | - | 485 W/m² | - |
| 1777989552 | 24.44° C | 69% | 1016.5 hPa | 0 mm | - | 464 W/m² | - |
| 1777989249 | 24.44° C | 68% | 1016.5 hPa | 0 mm | - | 455 W/m² | - |
| 1777988945 | 24.44° C | 69% | 1016.3 hPa | 0 mm | - | 437 W/m² | - |
| 1777988641 | 24.44° C | 68% | 1016.2 hPa | 0 mm | - | 422 W/m² | - |
| 1777988338 | 24.44° C | 69% | 1016.2 hPa | 0 mm | - | 399 W/m² | - |
| 1777988035 | 23.89° C | 70% | 1016.4 hPa | 0 mm | - | 378 W/m² | - |
| 1777987731 | 23.89° C | 70% | 1016.3 hPa | 0 mm | - | 336 W/m² | - |
| 1777987428 | 23.89° C | 71% | 1016.7 hPa | 0 mm | - | 347 W/m² | - |
| 1777987126 | 23.33° C | 71% | 1016.6 hPa | 0 mm | - | 297 W/m² | - |
| 1777986822 | 23.33° C | 71% | 1016.6 hPa | 0 mm | - | 297 W/m² | - |
| 1777986520 | 23.33° C | 72% | 1016.4 hPa | 0 mm | - | 284 W/m² | - |
| 1777986218 | 23.33° C | 71% | 1016.4 hPa | 0 mm | - | 285 W/m² | - |
| 1777985915 | 22.78° C | 73% | 1016.4 hPa | 0 mm | - | 260 W/m² | - |
| 1777985612 | 21.67° C | 75% | 1016.4 hPa | 0 mm | - | 219 W/m² | - |
| 1777985309 | 21.67° C | 75% | 1016.4 hPa | 0 mm | - | 187 W/m² | - |
| 1777985006 | 22.22° C | 74% | 1016.4 hPa | 0 mm | - | 130 W/m² | - |
| 1777984702 | 21.11° C | 77% | 1016.2 hPa | 0 mm | - | 194 W/m² | - |
| 1777984398 | 21.11° C | 77% | 1016.2 hPa | 0 mm | - | 194 W/m² | - |
* Rain latest hour (hover to see other rain measurements)
** Current wind speed in m/s (hover to see current wind gust speed)